Regional Weather Roundup
Issued by NWS

Home | Current Version | Previous Version | Text Only | Print | Product List | Glossary On
Versions: 1 2 3 4 5 6 7 8 9 10 11 12 13 14 15 16 17 18 19 20 21 22 23 24 25 26 27 28 29 30 31 32 33 34 35 36 37 38 39 40 41 42 43 44 45 46 47 48 49 50
000
ASUS44 KOUN 211510
RWROK

WEATHER ROUNDUP FOR OKLAHOMA
NATIONAL WEATHER SERVICE NORMAN OK
1000 AM CDT THU AUG 21 2014

NOTE: "FAIR" INDICATES FEW OR NO CLOUDS BELOW 12,000 FEET WITH NO
      SIGNIFICANT WEATHER AND/OR OBSTRUCTIONS TO VISIBILITY.

OKZ001>007-009>012-014-015-017-211600-
NORTHWEST OKLAHOMA AND THE PANHANDLE

CITY           SKY/WX    TMP DP  RH WIND       PRES   REMARKS
GAGE           SUNNY     87  63  44 S26G35    29.94R
ENID/WOODRING  SUNNY     86  70  58 S21G30    29.93S HX  90
$$

OKZ016-021>023-033>039-044-045-211600-
SOUTHWEST OKLAHOMA

CITY           SKY/WX    TMP DP  RH WIND       PRES   REMARKS
LAWTON/REGL    SUNNY     87  68  52 S16       29.98F HX  90
LAWTON/FT SILL SUNNY     87  70  56 S17G23    29.98S HX  91
FREDERICK      SUNNY     87  70  56 S24       29.95S HX  92
CLINTON        SUNNY     86  67  52 S23G33    29.99R
HOBART         SUNNY     86  68  54 SW24G31   29.98S
ALTUS AFB      SUNNY     86  71  60 S20       29.97S HX  91
$$

OKZ018>020-024>031-211600-
CENTRAL OKLAHOMA

CITY           SKY/WX    TMP DP  RH WIND       PRES   REMARKS
OKLAHOMA CITY  SUNNY     86  70  58 S18       29.98S HX  90
OKC/WILEY POST SUNNY     85  70  60 S18G26    29.98R
OKC/TINKER AFB SUNNY     84  70  64 S20G25    29.99S
STILLWATER     SUNNY     87  70  56 S16G22    29.96R HX  92
GUTHRIE        SUNNY     87  71  58 SW16G25   29.96S HX  93
$$

OKZ008-013-054>072-211600-
NORTHEAST OKLAHOMA

CITY           SKY/WX    TMP DP  RH WIND       PRES   REMARKS
TULSA          MOSUNNY   86  73  65 S15       29.97S HX  93
TULSA/JONES    SUNNY     86  72  62 S12       29.98S HX  92
PONCA CITY     SUNNY     86  70  58 S9G21     29.94S HX  90
BARTLESVILLE   SUNNY     87  73  62 SW12      29.98S HX  94
MUSKOGEE       SUNNY     84  72  67 S16G23    30.02S
$$

OKZ032-040>043-046>053-073>077-211600-
SOUTH CENTRAL/SOUTHEAST OKLAHOMA

CITY           SKY/WX    TMP DP  RH WIND       PRES   REMARKS
ARDMORE/DWNTWN MOSUNNY   82  70  65 SW10G18   30.02S
MCALESTER      SUNNY     83  72  69 S14G21    30.03S
$$




USA.gov is the U.S. government's official web portal to all federal, state and local government web resources and services.